Flag for U.S.A. Weather past 2 weeks in Port St. Lucie, Florida, U.S.A.


Scattered clouds.

Feels Like: N/A
Forecast: 71 / 79 °F
Wind: 17 mph from East

Location: Witham Field Airport

Current Time: Nov 27, 2015 at 4:12:03 PM

Latest Report: Nov 27, 2015 at 2:47 PM

Visibility: 7 mi

Pressure: 26.17 "Hg

Humidity: N/A

Dew point: N/A

Location of Port St. LucieLocation

Historic Weather in Port St. Lucie — Graph


Port St. Lucie temperature yesterday

Maximum temperature yesterday: 79 °F (at 11:47 AM)
Minimum temperature yesterday: 70 °F (at 9:55 PM)
Average temperature yesterday: 74 °F

Past Weeks' High & Low Weather Summary

High84 °F (Nov 13, 12:47 PM)100% (Nov 13, 5:55 AM)30.35 "Hg (Nov 13, 5:55 AM)
Low59 °F (Nov 23, 5:15 AM)41% (Nov 24, 10:47 AM)26.17 "Hg (Nov 27, 2:47 PM)
Average74 °F75%30.08 "Hg
* Reported Nov 12 2:47 PM — Nov 27 2:47 PM, Port St. Lucie, Weather by CustomWeather, © 2015

Note: Actual official high and low records may vary slightly from our data, if they occured in-between our weather recording intervals... More about our weather records


Port St. Lucie weather history for previous 24 hours

Time TempWeatherWind HumidityBarometerVisibility
2:47 PM
Fri, Nov 27
N/AScattered clouds.17 mphN/A26.17 "Hg7 mi
10:47 AM73 °FScattered showers. Scattered clouds.15 mph78%30.25 "Hg7 mi
9:47 AM77 °FScattered clouds.16 mph65%30.25 "Hg7 mi
8:50 AM77 °FScattered clouds.14 mph61%30.25 "Hg7 mi
7:50 AM73 °FScattered clouds.14 mph69%30.24 "Hg7 mi
6:50 AM73 °FScattered clouds.16 mph69%30.23 "Hg7 mi
6:15 AM72 °FPassing clouds.14 mph69%30.23 "Hg10 mi
5:55 AM73 °FPassing clouds.14 mph65%30.23 "Hg10 mi
5:35 AM73 °FPassing clouds.14 mph65%30.23 "Hg10 mi
4:55 AM73 °FPassing clouds.13 mph65%30.23 "Hg10 mi
4:35 AM73 °FPassing clouds.13 mph65%30.23 "Hg10 mi
4:15 AM73 °FPassing clouds.14 mph61%30.23 "Hg10 mi
3:55 AM73 °FPassing clouds.10 mph65%30.23 "Hg10 mi
3:35 AM73 °FClear.14 mph61%30.23 "Hg10 mi
3:15 AM73 °FClear.13 mph65%30.23 "Hg10 mi
2:55 AM73 °FClear.15 mph65%30.23 "Hg10 mi
1:35 AM73 °FPassing clouds.16 mph65%30.24 "Hg10 mi
1:15 AM73 °FPassing clouds.15 mph65%30.24 "Hg10 mi
12:55 AM73 °FPassing clouds.15 mph65%30.24 "Hg10 mi
12:35 AM73 °FPartly cloudy.17 mph69%30.24 "Hg10 mi
11:55 PM
Thu, Nov 26
72 °FPartly cloudy.15 mph73%30.25 "Hg7 mi
10:55 PM73 °FPartly cloudy.18 mph69%30.27 "Hg10 mi
10:35 PM72 °FPartly cloudy.20 mph73%30.26 "Hg10 mi
10:15 PM72 °FPartly cloudy.18 mph78%30.27 "Hg7 mi
9:55 PM70 °FLight rain. Partly cloudy.16 mph83%30.27 "Hg7 mi
9:15 PM73 °FPassing clouds.21 mph69%30.27 "Hg10 mi
8:55 PM73 °FPassing clouds.20 mph69%30.27 "Hg10 mi
8:35 PM73 °FPassing clouds.14 mph69%30.26 "Hg10 mi
8:15 PM73 °FPassing clouds.20 mph69%30.27 "Hg10 mi
7:55 PM73 °FPassing clouds.21 mph65%30.26 "Hg10 mi
7:15 PM73 °FPassing clouds.16 mph69%30.26 "Hg10 mi
6:55 PM73 °FPassing clouds.20 mph69%30.26 "Hg10 mi
6:47 PM73 °FScattered showers. Passing clouds.17 mph74%30.25 "Hg5 mi
6:35 PM72 °FPassing clouds.18 mph73%30.27 "Hg10 mi
4:47 PM73 °FScattered clouds.21 mph69%30.27 "Hg7 mi
Weather by CustomWeather, © 2015

See weather overviewHow to use our weather pages